Location: Mary A Oil Field
(38.5606°N, 98.9545°W)
Time: 19:29:14
(UTC+00:00)

Cosmos 2333 Rocket - Pass Details

Date: 20 January 2020
Orbit: 839 x 863 km, 70.8° (Epoch: 28 February)

Event Time Altitude Azimuth Distance (km) Brightness Sun altitude
Rises 00:59:18 0° 331° (NNW) 3,434 5.6 -14.9°
Reaches altitude 10° 01:01:49 10° 327° (NNW) 2,490 4.9 -15.4°
Maximum altitude 01:07:20 51° 253° (WSW) 1,060 3.1 -16.4°
Drops below altitude 10° 01:12:46 10° 179° (S) 2,459 4.7 -17.4°
Sets 01:15:16 0° 174° (S) 3,386 5.4 -17.9°
